Location: Bayview
(38.0070°N, 122.3188°W)
Time: 11:58:05
(UTC+00:00)

Cosmos 2228 Rocket - Pass Details

Date: 29 June 2022
Orbit: 618 x 651 km, 82.5° (Epoch: 15 August)

Event Time Altitude Azimuth Distance (km) Brightness Sun altitude
Rises 12:14:32 0° 353° (N) 2,910 7.0 -6.6°
Reaches altitude 10° 12:16:46 10° 355° (N) 2,003 6.1 -6.2°
Maximum altitude 12:21:13 81° 83° (E) 641 3.3 -5.5°
Drops below altitude 10° 12:25:40 10° 171° (S) 2,007 5.4 -4.8°
Sets 12:27:54 0° 172° (S) 2,915 6.2 -4.4°
